Regional Weather Roundup
Issued by NWS

Home | Current Version | Previous Version | Graphics & Text | Print | Product List | Glossary On
Versions: 1 2 3 4 5 6 7 8 9 10 11 12 13 14 15 16 17 18 19 20 21 22 23 24 25 26 27 28 29 30 31 32 33 34 35 36 37 38 39 40 41 42 43 44 45 46 47 48 49 50
000
ASUS43 KIND 251359
RWRIN

WEATHER ROUNDUP FOR INDIANA
NATIONAL WEATHER SERVICE INDIANAPOLIS IN
1000 AM EDT MON MAY 25 2015

NOTE: "FAIR" INDICATES FEW OR NO CLOUDS BELOW 12,000 FEET WITH NO
SIGNIFICANT WEATHER AND/OR OBSTRUCTIONS TO VISIBILITY.

* - STATION DOES NOT REPORT WEATHER SUCH AS PRECIPITATION OR FOG.

+ - STATION NOT QUALITY CONTROLLED BY THE NATIONAL WEATHER SERVICE.
    USE DATA WITH CAUTION...ESPECIALLY DEWPOINT AND RELATIVE
    HUMIDITY OBSERVATIONS.

INZ001>003-010>013-019-020-251500-
NORTHWEST INDIANA

CITY           SKY/WX    TMP DP  RH WIND       PRES   REMARKS
GARY /AIRPORT/ PTSUNNY   73  68  83 S14G29    29.88S
MONTICELLO +   CLOUDY    71  66  84 S21G28    29.97R
RENSSELAER +   CLOUDY    72  68  88 S20G28    29.94S

$$

LMZ046-743>745-251500-
SOUTHERN LAKE MICHIGAN

STATION/POSITION TIME  TEMP    WIND        PRES    WAVE
                       AIR SEA DIR/SP/G            HT
                 (UTC) (F)     (DEG/KT/KT) (MB)    (FT)
BURNS HARBOR     1300   72     200/ 22/ 29 1012.2S
MICHIGAN CITY    1300   72     170/ 20/ 25   N/A
5NW MICH CITY    1300   66 52  210/ 16/ 19   N/A     2

$$

INZ004-005-014>016-021>024-251500-
NORTH CENTRAL INDIANA

CITY           SKY/WX    TMP DP  RH WIND       PRES   REMARKS
ELKHART        CLOUDY    73  64  73 S14G29    29.94F
GOSHEN         CLOUDY    73  64  73 S25G36    29.95F
PERU/GRISSOM   LGT RAIN  70  64  83 S18G24    29.99R
SOUTH BEND     LGT RAIN  72  65  78 S24G36    29.93R
WARSAW +       CLOUDY    72  64  78 SW14G22   29.97S

$$

INZ006>009-017-018-025>027-251500-
NORTHEAST INDIANA

CITY           SKY/WX    TMP DP  RH WIND       PRES   REMARKS
ANGOLA *+      PTSUNNY   73  64  73 SW16      29.98S
FORT WAYNE     CLOUDY    72  64  76 SW24G30   30.02R

$$

INZ028-029-035-036-043>045-051>053-251500-
WEST CENTRAL INDIANA

CITY           SKY/WX    TMP DP  RH WIND       PRES   REMARKS
CRAWFORDSVL +  CLOUDY    68  60  76 S18G25    30.02R
GREENCASTLE +  CLOUDY    68  61  77 S10G20    30.05R
LAFAYETTE      CLOUDY    71  64  78 S13G23    29.97R
TERRE HAUTE    CLOUDY    69  65  86 S13G28    30.04R FOG

$$

INZ030>032-037>040-046>048-054>057-064-065-251500-
CENTRAL INDIANA

CITY           SKY/WX    TMP DP  RH WIND       PRES   REMARKS
GREENWOOD *+   CLOUDY    72  63  73 S20G29    30.08R
INDIANAPOLIS   CLOUDY    71  63  75 S18G30    30.04R
-EAGLE CREEK   CLOUDY    70  64  81 S14G25    30.04R
KOKOMO *+      CLOUDY    72  63  73 SW20G26   30.01S
MT COMFORT *+  CLOUDY    73  61  64 S17G26    30.06S
SHELBYVILLE    CLOUDY    73  65  75 S22       30.07S

$$

INZ033-034-041-042-049-050-058-059-251500-
EAST CENTRAL INDIANA

CITY           SKY/WX    TMP DP  RH WIND       PRES   REMARKS
MUNCIE         CLOUDY    73  63  70 SW22G31   30.04S

$$

INZ060-061-067>069-081>083-085>088-251500-
SOUTHWEST INDIANA

CITY           SKY/WX    TMP DP  RH WIND       PRES   REMARKS
EVANSVILLE     CLOUDY    70  67  90 S10       30.09S
HUNTINGBURG *+ CLOUDY    68  64  88 S18G24    30.11R

$$

INZ062-063-066-070>080-084-089>092-251500-
SOUTH CENTRAL AND SOUTHEAST INDIANA

CITY           SKY/WX    TMP DP  RH WIND       PRES   REMARKS
BLOOMINGTON    CLOUDY    69  64  84 S12G22    30.08R
MADISON *+     CLOUDY    66  63  88 S14       30.16S
SEYMOUR +      DRIZZLE   68  66  94 S16G23    30.11R

$$



USA.gov is the U.S. government's official web portal to all federal, state and local government web resources and services.